Flag for Brazil Weather past 2 weeks in Foz do Iguaçu, Paraná, Brazil

Now
66 °F

Clear.


Feels Like: 66 °F
Forecast: 60 / 80 °F
Wind: 5 mph from Southeast

Location: Foz Do Iguacu Aeroporto

Current Time: Jul 29, 2015 at 9:31:15 PM

Latest Report: Jul 29, 2015 at 9:00 PM


Visibility: 10 mi

Pressure: 30.09 "Hg

Humidity: 83%

Dew point: 61 °F

Location of Foz do IguaçuLocation

Historic Weather in Foz do Iguaçu — Graph

°F

Foz do Iguaçu temperature yesterday

Maximum temperature yesterday: 77 °F (at 4:00 PM)
Minimum temperature yesterday: 57 °F (at 5:00 AM)
Average temperature yesterday: 66 °F

Past Weeks' High & Low Weather Summary

 TemperatureHumidityPressure
High84 °F (Jul 29, 3:00 PM)100% (Jul 14, 8:00 PM)30.24 "Hg (Jul 14, 8:00 PM)
Low32 °F (Jul 26, 3:00 AM)37% (Jul 29, 3:00 PM)29.89 "Hg (Jul 19, 4:00 PM)
Average61 °F87%30.09 "Hg
* Reported Jul 14 8:00 PM — Jul 29 8:00 PM, Foz do Iguaçu, Weather by CustomWeather, © 2015

Note: Actual official high and low records may vary slightly from our data, if they occured in-between our weather recording intervals... More about our weather records

Advertising

Foz do Iguaçu weather history for previous 24 hours

 ConditionsComfort  
Time TempWeatherWind HumidityBarometerVisibility
8:00 PM
Wed, Jul 29
70 °FClear.5 mph78%30.09 "Hg10 mi
7:00 PM70 °FClear.3 mph78%30.09 "Hg10 mi
6:00 PM75 °FClear.3 mph61%30.07 "Hg10 mi
5:00 PM82 °FSunny.10 mph45%30.07 "Hg10 mi
4:00 PM84 °FSunny.12 mph40%30.07 "Hg10 mi
3:00 PM84 °FSunny.14 mph37%30.09 "Hg10 mi
2:00 PM82 °FSunny.10 mph42%30.09 "Hg10 mi
1:00 PM81 °FSunny.8 mph48%30.12 "Hg10 mi
12:00 PM75 °FSunny.6 mph65%30.15 "Hg10 mi
11:00 AM72 °FSunny.8 mph69%30.15 "Hg10 mi
10:00 AM68 °FSunny.12 mph73%30.15 "Hg10 mi
9:00 AM64 °FSunny.12 mph83%30.12 "Hg10 mi
8:00 AM63 °FSunny.9 mph83%30.12 "Hg10 mi
7:00 AM61 °FSunny.5 mph88%30.09 "Hg10 mi
6:00 AM61 °FClear.8 mph88%30.07 "Hg10 mi
5:00 AM61 °FClear.6 mph88%30.04 "Hg10 mi
4:00 AM59 °FClear.5 mph94%30.04 "Hg10 mi
3:00 AM61 °FClear.7 mph88%30.04 "Hg10 mi
2:00 AM64 °FClear.7 mph83%30.04 "Hg10 mi
1:00 AM64 °FClear.6 mph83%30.07 "Hg10 mi
12:00 AM63 °FClear.5 mph94%30.07 "Hg10 mi
11:00 PM
Tue, Jul 28
64 °FClear.7 mph88%30.04 "Hg10 mi
10:00 PM64 °FClear.2 mph88%30.01 "Hg10 mi
9:00 PM68 °FClear.7 mph78%30.01 "Hg10 mi
Weather by CustomWeather, © 2015

See weather overviewHow to use our weather pages